St. Johns, AZ

5:49 PM MST on December 15, 2019 (GMT -0700)
Saint Johns Industrial

Weather History for KSJN - August, 2019

Change the Weather History Date:

Wednesday, August 21, 2019

  Actual Average (KLSB) Record (KLSB)
Temperature  
Mean Temperature 68 °F -  
Max Temperature 87 °F 93 °F 95 °F (2015)
Min Temperature 48 °F 60 °F 60 °F (2014)
Cooling Degree Days 2    
Growing Degree Days 18 (Base 50)    
Moisture  
Dew Point 39 °F    
Average Humidity 26    
Maximum Humidity 52    
Minimum Humidity 4    
Precipitation  
Precipitation 0.00 in - - ()
Sea Level Pressure  
Sea Level Pressure 29.84 in    
Wind  
Wind Speed 7 mph (South)    
Max Wind Speed 17 mph    
Max Gust Speed 24 mph    
Visibility 10 miles    
Events      
Averages and records for this station are not official NWS values.
T = Trace of Precipitation, MM = Missing Value Source: NWS Daily Summary

Daily Weather History Graph

Daily Weather History Graph

Search for Another Location

Airport or City:

Astronomy

Aug. 21, 2019 Rise Set
Actual Time 5:42 AM MST 6:58 PM MST
Civil Twilight 5:16 AM MST 7:24 PM MST
Nautical Twilight 4:44 AM MST 7:55 PM MST
Astronomical Twilight 4:12 AM MST 8:28 PM MST
Moon 10:32 PM MST (8/21) 11:07 AM MST (8/21)
Length of Visible Light 14h 08m
Length of Day
13h 15m
Waning Gibbous, 68% of the Moon is Illuminated
Aug 21
Waning Gibbous
Aug 23
Last Quarter
Aug 30
New
Sep 5
First Quarter
Sep 13
Full

Hourly Weather History & Observations

Time (MST) Temp. Dew Point Humidity Pressure Visibility Wind Dir Wind Speed Gust Speed Precip Events Conditions
12:54 AM 70.0 °F 42.1 °F 36% 29.85 in 10.0 mi South 4.6 mph - N/A   Clear
1:54 AM 72.0 °F 41.0 °F 33% 29.83 in 10.0 mi South 9.2 mph - N/A   Clear
2:54 AM 70.0 °F 42.1 °F 36% 29.84 in 10.0 mi SSW 6.9 mph - N/A   Clear
3:54 AM 68.0 °F 42.1 °F 39% 29.85 in 10.0 mi ESE 5.8 mph - N/A   Partly Cloudy
4:54 AM 66.0 °F 42.1 °F 42% 29.87 in 10.0 mi South 4.6 mph - N/A   Clear
5:54 AM 61.0 °F 43.0 °F 52% 29.91 in 10.0 mi West 4.6 mph - N/A   Clear
6:54 AM 68.0 °F 45.0 °F 43% 29.89 in 10.0 mi SW 3.5 mph - N/A   Clear
7:54 AM 75.0 °F 46.0 °F 36% 29.90 in 10.0 mi North 4.6 mph - N/A   Clear
8:54 AM 81.0 °F 45.0 °F 28% 29.88 in 10.0 mi Variable 3.5 mph - N/A   Clear
9:54 AM 87.1 °F 42.1 °F 21% 29.87 in 10.0 mi NNE 8.1 mph - N/A   Clear
10:54 AM 90.0 °F 39.9 °F 17% 29.85 in 10.0 mi WNW 11.5 mph - N/A   Clear
11:54 AM 90.0 °F 37.9 °F 16% 29.83 in 10.0 mi Variable 3.5 mph - N/A   Partly Cloudy
12:54 PM 91.0 °F 36.0 °F 14% 29.81 in 10.0 mi Variable 5.8 mph - N/A   Mostly Cloudy
1:54 PM 91.0 °F 34.0 °F 13% 29.78 in 10.0 mi Calm Calm - N/A   Clear
2:54 PM 91.9 °F 39.0 °F 16% 29.75 in 10.0 mi Variable 4.6 mph - N/A   Clear
3:54 PM 93.9 °F 37.9 °F 14% 29.72 in 10.0 mi SE 11.5 mph - N/A   Clear
4:54 PM 91.9 °F 37.9 °F 15% 29.73 in 10.0 mi South 9.2 mph - N/A   Clear
5:54 PM 87.1 °F 39.9 °F 19% 29.76 in 10.0 mi East 13.8 mph - N/A   Clear
6:54 PM 82.0 °F 46.0 °F 28% 29.77 in 10.0 mi East 13.8 mph - 0.00 in   Scattered Clouds
7:11 PM 82.9 °F 42.1 °F 24% 30.07 in 10.0 mi SSE 16.1 mph - N/A   Clear
7:54 PM 80.1 °F 46.0 °F 30% 29.76 in 10.0 mi SSE 17.3 mph 24.2 mph N/A   Clear
8:54 PM 78.1 °F 45.0 °F 31% 29.77 in 10.0 mi South 9.2 mph - N/A   Clear
9:54 PM 75.9 °F 43.0 °F 31% 29.76 in 10.0 mi SSW 10.4 mph - N/A   Clear
10:54 PM 72.0 °F 45.0 °F 38% 29.77 in 10.0 mi South 8.1 mph - N/A   Clear
11:54 PM 70.0 °F 43.0 °F 38% 29.78 in 10.0 mi South 6.9 mph - N/A   Clear